• în România
  • Lista ţărilor
  • Pe 7 zile
  • Temperatura apei
  • Hartă satelitară
  • Meteo pe hartă
  • Widget-uri
  • user-avatar
    Intrare

    Meteo pe oră la Kotonu

    Astăzi, 22 Septembrie, Sâmbătă

    Timp Temperatura Precipitaţii Vânt Presiune Umiditate
    00:00 +28°C° 0.2 mm 4 m/s 758 mmHg 83%
    01:00 +28°C° 0.2 mm 4 m/s 758 mmHg 83%
    02:00 +27°C° 0.2 mm 4 m/s 757 mmHg 83%
    03:00 +27°C° 0.2 mm 4 m/s 757 mmHg 84%
    04:00 +27°C° 0 mm 4 m/s 757 mmHg 84%
    05:00 +27°C° 0 mm 4 m/s 757 mmHg 84%
    06:00 +27°C° 0 mm 4 m/s 757 mmHg 84%
    07:00 +29°C° 0 mm 4 m/s 758 mmHg 77%
    08:00 +30°C° 0 mm 4 m/s 758 mmHg 70%
    09:00 +33°C° 0 mm 5 m/s 759 mmHg 63%
    10:00 +34°C° 0 mm 5 m/s 758 mmHg 60%
    11:00 +35°C° 0 mm 5 m/s 758 mmHg 56%
    12:00 +36°C° 0 mm 5 m/s 758 mmHg 53%
    13:00 +35°C° 0.2 mm 5 m/s 757 mmHg 54%
    14:00 +35°C° 0.2 mm 6 m/s 756 mmHg 55%
    15:00 +35°C° 0.2 mm 6 m/s 755 mmHg 57%
    16:00 +33°C° 0.4 mm 6 m/s 756 mmHg 64%
    17:00 +30°C° 0.4 mm 5 m/s 756 mmHg 71%
    18:00 +28°C° 0.4 mm 5 m/s 757 mmHg 78%
    19:00 +28°C° 0.1 mm 5 m/s 757 mmHg 80%
    20:00 +28°C° 0.1 mm 4 m/s 758 mmHg 82%
    21:00 +28°C° 0.1 mm 4 m/s 759 mmHg 84%
    22:00 +27°C° 0.2 mm 4 m/s 759 mmHg 85%
    23:00 +27°C° 0.2 mm 4 m/s 758 mmHg 85%

    Mâine, 23 Septembrie, Duminică

    Timp Temperatura Precipitaţii Vânt Presiune Umiditate
    00:00 +27°C° 0.2 mm 4 m/s 758 mmHg 86%
    01:00 +27°C° 0 mm 4 m/s 758 mmHg 86%
    02:00 +27°C° 0 mm 4 m/s 758 mmHg 86%
    03:00 +27°C° 0 mm 4 m/s 758 mmHg 86%
    04:00 +27°C° 0.4 mm 3 m/s 758 mmHg 86%
    05:00 +27°C° 0.4 mm 3 m/s 758 mmHg 86%
    06:00 +27°C° 0.4 mm 3 m/s 758 mmHg 86%
    07:00 +28°C° 0.1 mm 3 m/s 759 mmHg 79%
    08:00 +30°C° 0.1 mm 3 m/s 759 mmHg 72%
    09:00 +31°C° 0.1 mm 3 m/s 760 mmHg 65%
    10:00 +33°C° 0.3 mm 3 m/s 759 mmHg 64%
    11:00 +33°C° 0.3 mm 3 m/s 759 mmHg 64%
    12:00 +33°C° 0.3 mm 3 m/s 758 mmHg 63%
    13:00 +31°C° 0.8 mm 3 m/s 758 mmHg 68%
    14:00 +30°C° 0.8 mm 3 m/s 757 mmHg 73%
    15:00 +29°C° 0.8 mm 3 m/s 757 mmHg 77%
    16:00 +29°C° 0 mm 3 m/s 757 mmHg 79%
    17:00 +28°C° 0 mm 4 m/s 757 mmHg 81%
    18:00 +28°C° 0 mm 4 m/s 757 mmHg 83%
    19:00 +27°C° 0 mm 4 m/s 758 mmHg 84%
    20:00 +27°C° 0 mm 3 m/s 758 mmHg 84%
    21:00 +27°C° 0 mm 3 m/s 759 mmHg 85%
    22:00 +27°C° 0 mm 3 m/s 759 mmHg 86%
    23:00 +27°C° 0 mm 2 m/s 759 mmHg 86%

    Poimâine, 24 Septembrie, Luni

    Timp Temperatura Precipitaţii Vânt Presiune Umiditate
    00:00 +27°C° 0 mm 2 m/s 759 mmHg 87%
    01:00 +26°C° 0 mm 2 m/s 759 mmHg 88%
    02:00 +26°C° 0 mm 2 m/s 758 mmHg 88%
    03:00 +26°C° 0 mm 2 m/s 758 mmHg 89%
    04:00 +26°C° 0 mm 1 m/s 758 mmHg 89%
    05:00 +26°C° 0 mm 1 m/s 759 mmHg 90%
    06:00 +26°C° 0 mm 1 m/s 759 mmHg 90%
    07:00 +27°C° 0 mm 1 m/s 759 mmHg 84%
    08:00 +29°C° 0 mm 1 m/s 760 mmHg 78%
    09:00 +30°C° 0 mm 1 m/s 760 mmHg 71%
    10:00 +30°C° 0 mm 2 m/s 759 mmHg 69%
    11:00 +31°C° 0 mm 2 m/s 759 mmHg 66%
    12:00 +31°C° 0 mm 3 m/s 758 mmHg 64%
    13:00 +31°C° 0 mm 3 m/s 757 mmHg 64%
    14:00 +31°C° 0 mm 3 m/s 757 mmHg 63%
    15:00 +31°C° 0 mm 3 m/s 756 mmHg 63%
    16:00 +30°C° 0 mm 3 m/s 756 mmHg 67%
    17:00 +30°C° 0 mm 3 m/s 756 mmHg 71%
    18:00 +29°C° 0 mm 3 m/s 757 mmHg 74%
    19:00 +28°C° 0 mm 3 m/s 757 mmHg 78%
    20:00 +28°C° 0 mm 3 m/s 758 mmHg 81%
    21:00 +27°C° 0 mm 3 m/s 758 mmHg 84%
    22:00 +27°C° 0 mm 3 m/s 758 mmHg 85%
    23:00 +27°C° 0 mm 3 m/s 758 mmHg 86%

    25 Septembrie, Marţi

    Timp Temperatura Precipitaţii Vânt Presiune Umiditate
    00:00 +27°C° 0 mm 3 m/s 758 mmHg 88%
    01:00 +27°C° 0 mm 3 m/s 758 mmHg 88%
    02:00 +27°C° 0 mm 3 m/s 758 mmHg 89%
    03:00 +27°C° 0 mm 3 m/s 757 mmHg 90%
    04:00 +27°C° 0 mm 3 m/s 758 mmHg 90%
    05:00 +27°C° 0 mm 4 m/s 758 mmHg 90%
    06:00 +27°C° 0 mm 4 m/s 758 mmHg 90%
    07:00 +28°C° 0 mm 4 m/s 758 mmHg 83%
    08:00 +30°C° 0 mm 4 m/s 759 mmHg 77%
    09:00 +32°C° 0 mm 4 m/s 760 mmHg 70%
    10:00 +33°C° 0.1 mm 4 m/s 759 mmHg 66%
    11:00 +34°C° 0.1 mm 4 m/s 758 mmHg 62%
    12:00 +35°C° 0.1 mm 4 m/s 758 mmHg 57%
    13:00 +35°C° 0 mm 4 m/s 757 mmHg 58%
    14:00 +35°C° 0 mm 4 m/s 756 mmHg 58%
    15:00 +35°C° 0 mm 5 m/s 756 mmHg 59%
    16:00 +33°C° 0.1 mm 4 m/s 756 mmHg 65%
    17:00 +32°C° 0.1 mm 4 m/s 756 mmHg 71%
    18:00 +29°C° 0.1 mm 4 m/s 756 mmHg 77%
    19:00 +29°C° 0.4 mm 4 m/s 757 mmHg 79%
    20:00 +28°C° 0.4 mm 4 m/s 758 mmHg 81%
    21:00 +28°C° 0.4 mm 3 m/s 758 mmHg 83%
    22:00 +28°C° 0.5 mm 3 m/s 758 mmHg 83%
    23:00 +28°C° 0.5 mm 4 m/s 758 mmHg 82%

    26 Septembrie, Miercuri

    Timp Temperatura Precipitaţii Vânt Presiune Umiditate
    00:00 +28°C° 0.5 mm 4 m/s 758 mmHg 82%
    01:00 +27°C° 0.6 mm 3 m/s 757 mmHg 83%
    02:00 +27°C° 0.6 mm 3 m/s 757 mmHg 83%
    03:00 +27°C° 0.6 mm 3 m/s 757 mmHg 83%
    04:00 +27°C° 0.4 mm 3 m/s 757 mmHg 83%
    05:00 +27°C° 0.4 mm 3 m/s 757 mmHg 84%
    06:00 +27°C° 0.4 mm 3 m/s 758 mmHg 84%
    07:00 +28°C° 0.3 mm 3 m/s 758 mmHg 78%
    08:00 +30°C° 0.3 mm 3 m/s 758 mmHg 72%
    09:00 +31°C° 0.3 mm 3 m/s 759 mmHg 66%
    10:00 +33°C° 0.3 mm 3 m/s 758 mmHg 62%
    11:00 +34°C° 0.3 mm 3 m/s 758 mmHg 59%
    12:00 +35°C° 0.3 mm 3 m/s 757 mmHg 55%
    13:00 +34°C° 0 mm 4 m/s 757 mmHg 56%
    14:00 +34°C° 0 mm 4 m/s 756 mmHg 57%
    15:00 +34°C° 0 mm 4 m/s 756 mmHg 58%
    16:00 +32°C° 0 mm 4 m/s 756 mmHg 64%
    17:00 +30°C° 0 mm 4 m/s 756 mmHg 69%
    18:00 +29°C° 0 mm 4 m/s 757 mmHg 74%
    19:00 +28°C° 0 mm 4 m/s 757 mmHg 77%
    20:00 +28°C° 0 mm 4 m/s 758 mmHg 79%
    21:00 +28°C° 0 mm 4 m/s 758 mmHg 82%
    22:00 +28°C° 0 mm 4 m/s 758 mmHg 84%
    23:00 +27°C° 0 mm 4 m/s 758 mmHg 85%

    27 Septembrie, Joi

    Timp Temperatura Precipitaţii Vânt Presiune Umiditate
    00:00 +27°C° 0 mm 4 m/s 758 mmHg 86%
    01:00 +27°C° 0 mm 3 m/s 757 mmHg 87%
    02:00 +27°C° 0 mm 3 m/s 757 mmHg 88%
    03:00 +26°C° 0 mm 3 m/s 757 mmHg 89%
    04:00 +26°C° 0 mm 3 m/s 757 mmHg 89%
    05:00 +26°C° 0 mm 3 m/s 758 mmHg 89%
    06:00 +26°C° 0 mm 3 m/s 758 mmHg 90%
    07:00 +28°C° 0 mm 3 m/s 758 mmHg 81%
    08:00 +30°C° 0 mm 3 m/s 759 mmHg 73%
    09:00 +33°C° 0 mm 3 m/s 759 mmHg 65%
    10:00 +34°C° 0 mm 4 m/s 759 mmHg 61%
    11:00 +35°C° 0 mm 4 m/s 758 mmHg 57%
    12:00 +36°C° 0 mm 5 m/s 757 mmHg 53%
    13:00 +35°C° 0 mm 5 m/s 757 mmHg 54%
    14:00 +35°C° 0 mm 5 m/s 756 mmHg 55%
    15:00 +35°C° 0 mm 5 m/s 756 mmHg 56%
    16:00 +33°C° 0 mm 5 m/s 756 mmHg 62%
    17:00 +32°C° 0 mm 5 m/s 756 mmHg 68%
    18:00 +29°C° 0 mm 5 m/s 757 mmHg 74%
    19:00 +29°C° 0 mm 4 m/s 757 mmHg 77%
    20:00 +29°C° 0 mm 4 m/s 758 mmHg 80%
    21:00 +28°C° 0 mm 4 m/s 758 mmHg 83%
    22:00 +28°C° 0 mm 4 m/s 758 mmHg 84%
    23:00 +28°C° 0 mm 4 m/s 758 mmHg 85%
    Arată mai mult